Regional Weather Roundup
Issued by NWS

Home | Current Version | Previous Version | Text Only | Print | Product List | Glossary Off
Versions: 1 2 3 4 5 6 7 8 9 10 11 12 13 14 15 16 17 18 19 20 21 22 23 24 25 26 27 28 29 30 31 32 33 34 35 36 37 38 39 40 41 42 43 44 45 46 47 48 49 50

000
ASUS45 KCYS 262310
RWRWY

WYOMING REGIONAL WEATHER ROUNDUP
NATIONAL WEATHER SERVICE CHEYENNE WY
500 PM MDT THU MAY 26 2016

NOTE:  "FAIR" INDICATES FEW OR NO CLOUDS BELOW 12,000 FEET
WITH NO SIGNIFICANT WEATHER AND/OR OBSTRUCTIONS TO VISIBILITY.

WYZ001-270000-
YELLOWSTONE NATIONAL PARK

CITY           SKY/WX    TMP DP  RH WIND       PRES   REMARKS
LK YELLOWSTONE   N/A     45  34  65 VRB5      30.06F
W YELLOWSTONE  NOT AVBL

$$
WYZ002>013-054>058-071-098>099-270000-
NORTHERN WYOMING

CITY           SKY/WX    TMP DP  RH WIND       PRES   REMARKS
JACKSON        MOSUNNY   57  34  41 W13       29.98S
CODY           CLOUDY    55  39  54 N6        29.97R
GREYBULL       FAIR      62  41  46 N5        29.92F
WORLAND        FAIR      60  42  51 NE9       29.94F
SHERIDAN       PTSUNNY   62  43  49 W7        29.91F
BUFFALO        FAIR      59  41  51 N13       29.94F
GILLETTE       PTSUNNY   62  40  44 NW24G32   29.88S
HULETT         MOCLDY    64  36  34 W10G16    29.88S
NEWCASTLE      FAIR      66  30  26 NW15G23   29.88S

$$
WYZ014>020-022>026-101>103-270000-
CENTRAL WYOMING

CITY           SKY/WX    TMP DP  RH WIND       PRES   REMARKS
BIG PINEY      FAIR      61  25  25 N12G20    29.97F
PINEDALE       CLOUDY    59  32  36 N13       29.98F
DUBOIS         MOCLDY    54  19  26 NW10      29.96S
LANDER         FAIR      65  33  30 MISG      29.88F
RIVERTON       FAIR      67  30  25 E8        29.90F
CASPER         FAIR      62  35  36 N12G18    29.90F
DOUGLAS          N/A    N/A N/A N/A MISG      29.90S

$$
WYZ021-027>030-104>119-270000-
SOUTHERN WYOMING

CITY           SKY/WX    TMP DP  RH WIND       PRES   REMARKS
EVANSTON       LGT RAIN  52  36  54 E7        30.01F
KEMMERER       LGT RAIN  52  37  58 SW6       30.01F
FORT BRIDGER   FAIR      52  37  58 W9        30.03S THUNDER
ROCK SPRINGS   FAIR      58  28  32 N9        29.95S
DIXON          FAIR      61  32  32 E7        29.92F
RAWLINS        FAIR      61  27  27 N10G17    29.92F
SARATOGA       FAIR      59  28  31 NW6       29.94S
LARAMIE        FAIR      45  38  76 SE15      29.96F
CHEYENNE       CLOUDY    48  42  80 CALM      29.97F
TORRINGTON     CLOUDY    59  39  47 SW7       29.88S
PINE BLUFFS    LGT RAIN  48  45  87 W12       29.95S

$$



USA.gov is the U.S. government's official web portal to all federal, state and local government web resources and services.